Flag for United Kingdom Weather past 2 weeks in Swanage, England, United Kingdom

52 °F

Passing clouds.

Feels Like: 46 °F
Forecast: N/A
Wind: 18 mph from West

Location: Bournemouth Airport

Current Time: Nov 28, 2015 at 5:07:24 PM

Latest Report: Nov 28, 2015 at 4:20 PM

Visibility: N/A

Pressure: 29.80 "Hg

Humidity: 77%

Dew point: 45 °F

Location of SwanageLocation

Historic Weather in Swanage — Graph


Swanage temperature yesterday

Maximum temperature yesterday: 55 °F (at 11:20 AM)
Minimum temperature yesterday: 41 °F (at 11:20 PM)
Average temperature yesterday: 51 °F

Past Weeks' High & Low Weather Summary

High61 °F (Nov 17, 1:50 PM)100% (Nov 16, 11:50 PM)30.36 "Hg (Nov 16, 11:50 PM)
Low27 °F (Nov 22, 5:50 AM)42% (Nov 21, 1:20 PM)29.59 "Hg (Nov 17, 1:20 PM)
Average49 °F84%29.96 "Hg
* Reported Nov 13 3:20 PM — Nov 28 3:50 PM, Swanage, Weather by CustomWeather, © 2015

Note: Actual official high and low records may vary slightly from our data, if they occured in-between our weather recording intervals... More about our weather records


Swanage weather history for previous 24 hours

Time TempWeatherWind HumidityBarometerVisibility
3:50 PM
Sat, Nov 28
52 °FPartly sunny.23 mph72%29.83 "HgN/A
3:20 PM50 °FScattered clouds.17 mph82%29.83 "HgN/A
2:50 PM50 °FScattered clouds.17 mph76%29.86 "HgN/A
2:20 PM50 °FScattered clouds.16 mph76%29.86 "HgN/A
1:50 PM48 °FScattered clouds.16 mph82%29.89 "HgN/A
1:20 PM48 °FSprinkles. Scattered clouds.16 mph82%29.92 "HgN/A
12:50 PM48 °FSprinkles. Scattered clouds.17 mph82%29.92 "HgN/A
11:50 AM50 °FScattered clouds.15 mph71%29.95 "HgN/A
11:20 AM50 °FPassing clouds.14 mph71%29.98 "HgN/A
10:50 AM48 °FPassing clouds.13 mph76%29.98 "HgN/A
10:20 AM48 °FPassing clouds.13 mph76%30.01 "HgN/A
9:50 AM46 °FPassing clouds.8 mph76%30.01 "HgN/A
9:20 AM46 °FPassing clouds.10 mph76%30.01 "HgN/A
8:50 AM43 °FPassing clouds.9 mph81%30.04 "HgN/A
8:20 AM39 °FSunny.3 mph81%30.04 "Hg10 mi
7:50 AM39 °FSunny.6 mph87%30.01 "Hg10 mi
7:20 AM37 °FClear.3 mph87%30.01 "Hg10 mi
6:20 AM37 °FClear.5 mph87%30.04 "Hg10 mi
5:50 AM37 °FClear.7 mph87%30.04 "Hg10 mi
1:50 AM36 °FClear.8 mph81%29.98 "Hg10 mi
1:20 AM41 °FClear.13 mph76%29.98 "Hg10 mi
12:50 AM41 °FPassing clouds.12 mph76%29.95 "HgN/A
12:20 AM41 °FPassing clouds.14 mph76%29.95 "HgN/A
11:50 PM
Fri, Nov 27
41 °FPassing clouds.16 mph76%29.92 "HgN/A
11:20 PM41 °FClear.15 mph81%29.92 "Hg10 mi
10:50 PM43 °FPassing clouds.17 mph76%29.89 "HgN/A
10:20 PM43 °FPassing clouds.17 mph81%29.89 "HgN/A
9:50 PM45 °FPassing clouds.18 mph81%29.86 "HgN/A
9:20 PM45 °FPassing clouds.20 mph81%29.83 "HgN/A
8:50 PM46 °FPassing clouds.20 mph82%29.80 "HgN/A
8:20 PM46 °FPassing clouds.16 mph87%29.77 "HgN/A
7:50 PM46 °FPassing clouds.13 mph87%29.77 "HgN/A
7:20 PM46 °FRain. Passing clouds.17 mph87%29.77 "HgN/A
6:50 PM48 °FPartly cloudy.16 mph87%29.74 "HgN/A
6:20 PM48 °FLight rain. Passing clouds.24 mph87%29.74 "HgN/A
5:50 PM54 °FRain. Fog.13 mph94%29.68 "Hg2 mi
5:20 PM54 °FPartly cloudy.16 mph88%29.68 "HgN/A
Weather by CustomWeather, © 2015

See weather overviewHow to use our weather pages